Location: Vinland
(47.7731°N, 122.6974°W)
Time: 20:52:07
(UTC+00:00)

Vanguard 1 Rocket - Pass Details

Date: 25 March 2023
Orbit: 655 x 4220 km, 34.3° (Epoch: 05 June)

Event Time Altitude Azimuth Distance (km) Brightness Sun altitude
Rises 03:35:26 0° 186° (S) 8,417 12.2 -11.8°
Reaches altitude 10° 03:45:01 10° 170° (S) 7,379 11.7 -13.3°
Maximum altitude 03:58:00 17° 139° (SE) 6,288 11.1 -15.4°
Enters shadow 04:02:08 16° 126° (SE) 6,115 11.0 -16.0°
